Location: Caltech
(34.1382°N, 118.1253°W)
Time: 08:59:24
(UTC-07:00)

Saudisat 1A - Visible Passes

Search period start: 25 April 2015 00:00
Search period end: 05 May 2015 00:00
Orbit: 582 x 618 km, 64.6° (Epoch: 24 April)

Date Brightness Start Highest point End Pass type
(mag) Time Alt. Az. Time Alt. Az. Time Alt. Az.
25 Apr 10.3 04:40:38 10° SSE 04:43:47 21° ESE 04:47:06 10° ENE visible
26 Apr 9.1 04:50:42 10° S 04:54:44 41° ESE 04:58:53 10° NE visible
27 Apr 8.0 05:02:07 14° SSW 05:05:45 85° ESE 05:10:09 10° NNE visible
28 Apr 10.5 03:36:41 12° SE 03:37:43 13° ESE 03:39:53 10° E visible
28 Apr 8.4 05:13:26 15° SW 05:16:52 47° WNW 05:21:07 10° NNE visible
29 Apr 9.6 03:47:54 25° SE 03:48:37 26° ESE 03:52:19 10° NE visible
29 Apr 9.3 05:24:39 11° WSW 05:28:05 25° NW 05:31:45 10° N visible
30 Apr 8.4 03:59:02 49° SE 03:59:34 53° ESE 04:03:50 10° NE visible
30 Apr 10.0 05:36:56 10° W 05:39:27 15° NW 05:41:51 10° NNW visible
01 May 7.8 04:10:04 65° WSW 04:10:35 75° WNW 04:14:58 10° NNE visible
02 May 10.7 02:44:19 14° E 02:44:19 14° E 02:45:22 10° ENE visible
02 May 8.7 04:21:02 35° WNW 04:21:42 37° NW 04:25:48 10° NNE visible
03 May 10.1 02:55:12 23° ENE 02:55:12 23° ENE 02:57:20 10° NE visible
03 May 9.6 04:31:56 19° WNW 04:32:58 21° NW 04:36:16 10° N visible
04 May 9.5 03:06:02 35° NE 03:06:02 35° NE 03:08:40 10° NE visible
04 May 10.2 04:42:46 10° WNW 04:44:21 12° NW 04:45:56 10° NNW visible
